User: anonymous   Login
Location: Unspecified
(0.0000°N, 0.0000°E)
Time: 20:47:57
(UTC+00:00)
Language:

Tiros 4 - Orbit

View from above orbital plane
View from above orbital plane
View from above satellite
View from above satellite

Ground track
Ground track

The orbit data is extracted from the following two-line orbital elements,

1   226U 62002A   18264.84986973 -.00000144 +00000-0 +80412-5 0  9995
2   226 048.2958 178.1410 0077792 147.8906 212.6764 14.45629174959629
Epoch (UTC): 21 September 2018 20:23:48
Eccentricity: 0.0077792
inclination: 48.2958°
perigee height: 684 km
apogee height: 795 km
right ascension of ascending node: 178.1410°
argument of perigee: 147.8906°
revolutions per day: 14.45629174
mean anomaly at epoch: 212.6764°
orbit number at epoch: 95962

The dashed part of the orbit path shows where the satellite is in the earth's shadow,  

DLR